Simultaneous Nadir Overpasses (SNOs) Predictions

Prediction of SNOs between LANDSAT-8 and NOAA-19 Satellite Orbit:

Table of predicted SNOs for the next 14.0 days since TLE Epoch: 2/2/2018
Index Date (LANDSAT-8) Time (LANDSAT-8) Lat,Lon (LANDSAT-8) SZA (LANDSAT-8 ) Date (NOAA-19) Time (NOAA-19) Lat,Lon (NOAA-19) SZA (NOAA-19 ) Distance(km) Time Diff (sec)
1 02/03/2018 01:53:10 -77.16, -16.26 86.21 02/03/2018 01:52:04 -77.19, -16.31 86.19 3.32 66
2 02/03/2018 02:42:37 77.11, 151.17 93.73 02/03/2018 02:42:58 77.11, 151.33 93.74 3.91 21
3 02/05/2018 07:26:52 77.20, 80.45 93.17 02/05/2018 07:25:39 77.17, 80.45 93.14 2.95 73
4 02/05/2018 08:16:21 -77.12,-112.22 86.93 02/05/2018 08:16:43 -77.12,-112.07 86.93 3.74 22
5 02/07/2018 13:00:36 -77.21, 177.06 87.51 02/07/2018 12:59:24 -77.18, 177.03 87.54 3.15 72
6 02/07/2018 13:50:03 77.15, -15.53 92.42 02/07/2018 13:50:19 77.14, -15.50 92.41 1.60 16
7 02/09/2018 18:34:16 77.33, -85.90 91.92 02/09/2018 18:33:05 77.41, -87.36 91.94 36.42 71
8 02/09/2018 19:23:47 -77.17, 81.09 88.28 02/09/2018 19:24:04 -77.16, 81.04 88.28 1.24 17
9 02/12/2018 00:07:59 -77.34, 10.71 88.80 02/12/2018 00:06:48 -77.40, 9.32 88.80 34.39 71
10 02/12/2018 00:57:28 77.19, 177.74 91.02 02/12/2018 00:57:39 77.17, 177.66 91.00 2.59 11
11 02/14/2018 05:41:35 77.64, 108.47 90.79 02/14/2018 05:40:31 77.68, 104.56 90.71 93.22 64
12 02/14/2018 06:31:12 -77.20, -85.64 89.72 02/14/2018 06:31:23 -77.18, -85.73 89.75 3.26 11
13 02/16/2018 11:15:19 -77.65,-154.92 89.97 02/16/2018 11:14:15 -77.70,-158.91 90.05 95.03 64
14 02/16/2018 12:04:54 77.21, 10.97 89.53 02/16/2018 12:05:00 77.21, 10.79 89.52 4.53 6




NCC Satellite Simultaneous Nadir Overpasses (SNOs) Prediction Service
